7 * 24
多渠道服务支持
STARLINK-37145(NORAD编号68548)是美国太空探索技术公司(SpaceX)“星链”(Starlink)星座中的一颗第二代迷你卫星(V2Mini),主要用于提供全球卫星互联网服务。该卫星运行于近地轨道,属于SpaceX星链项目大规模组网的一部分,依托星链星座低轨布局,为偏远地区、海上及航空场景等提供宽带互联网接入服务。截至公开信息显示,该卫星目前仍正常在轨运行,星链星座整体计划为全球提供低延迟、高速率的卫星互联网覆盖,此类卫星后续将逐步再入大气层完成销毁,符合SpaceX的太空垃圾治理规划。
美国
(US)
| 数据来源 | 国际轨道数据 |
| 星历时间: | 2026-07-27T23:31:09+0800 10小时前 查看轨道信息 |
| 半长轴: | 6841.573km |
| 偏心率: | 0.0000425 |
| 轨道倾角: | 53.158° |
| 近地点辐角 | 223.139° |
| 升交点赤经 | 70.316° |
| 平近点角 | 136.958° |
| 近地点: | 463.145km |
| 远地点: | 463.727km |
| 周期: | 93.863分钟 |
| 每日圈数: | 15.341535 |